This is the latest recevied weather packets stored in our database for station/object LA5NNA. If no packets are shown the sender has not sent any weather packets the latest 10 day(s).
| Time | Temp. | Humidity | Pressure | Rain* | Wind** | Luminosity | Snow |
|---|---|---|---|---|---|---|---|
| 1777683611 | 8.33° C | 76% | 1016.5 hPa | 0 mm | - | 0 W/m² | - |
| 1777680308 | 8.33° C | 77% | 1017.2 hPa | 0 mm | - | 0 W/m² | - |
| 1777675208 | 8.33° C | 76% | 1018.9 hPa | 0 mm | - | 0 W/m² | - |
| 1777673408 | 8.89° C | 75% | 1019 hPa | 0 mm | - | 0 W/m² | - |
| 1777673108 | 8.89° C | 75% | 1019.2 hPa | 0 mm | - | 0 W/m² | - |
| 1777672508 | 8.89° C | 75% | 1019.4 hPa | 0 mm | - | 0 W/m² | - |
| 1777672209 | 9.44° C | 75% | 1019.3 hPa | 0 mm | - | 0 W/m² | - |
| 1777668008 | 10° C | 73% | 1020.1 hPa | 0 mm | - | 0 W/m² | - |
| 1777667708 | 10° C | 73% | 1020.1 hPa | 0 mm | - | 0 W/m² | - |
| 1777665908 | 10° C | 72% | 1020.3 hPa | 0 mm | - | 0 W/m² | - |
| 1777663208 | 11.11° C | 72% | 1020.6 hPa | 0 mm | - | 0 W/m² | - |
| 1777662608 | 11.11° C | 72% | 1020.6 hPa | 0 mm | - | 0 W/m² | - |
| 1777662308 | 11.11° C | 72% | 1020.5 hPa | 0 mm | - | 0 W/m² | - |
| 1777659908 | 11.67° C | 71% | 1020.8 hPa | 0 mm | - | 0 W/m² | - |
| 1777657808 | 11.67° C | 71% | 1021 hPa | 0 mm | - | 0 W/m² | - |
| 1777657508 | 11.67° C | 70% | 1021 hPa | 0 mm | - | 0 W/m² | - |
| 1777656307 | 11.67° C | 70% | 1021.3 hPa | 0 mm | - | 0 W/m² | - |
| 1777650007 | 12.78° C | 67% | 1022.4 hPa | 0 mm | - | 0 W/m² | - |
| 1777649411 | 12.78° C | 67% | 1022.6 hPa | 0 mm | - | 2 W/m² | - |
| 1777648807 | 13.33° C | 66% | 1022.6 hPa | 0 mm | - | 0 W/m² | - |
| 1777641007 | 13.89° C | 65% | 1024.2 hPa | 0 mm | - | 0 W/m² | - |
| 1777640107 | 13.89° C | 65% | 1024.3 hPa | 0 mm | - | 0 W/m² | - |
| 1777638907 | 13.89° C | 66% | 1024.4 hPa | 0 mm | - | 0 W/m² | - |
| 1777636810 | 13.89° C | 66% | 1025 hPa | 0 mm | - | 0 W/m² | - |
| 1777634107 | 13.33° C | 65% | 1025.3 hPa | 0 mm | - | 0 W/m² | - |
* Rain latest hour (hover to see other rain measurements)
** Current wind speed in m/s (hover to see current wind gust speed)